Carmi, IL

12:51 AM CDT on April 25, 2017 (GMT -0500)
Carmi Municipal

Weather History for KCUL - February, 2013

Change the Weather History Date:

Monday, February 18, 2013

  Actual Average (KEHR) Record (KEHR)
Temperature  
Mean Temperature 48 °F -  
Max Temperature 62 °F 49 °F 73 °F (1961)
Min Temperature 35 °F 29 °F -7 °F (1936)
Degree Days  
Heating Degree Days 16    
Moisture  
Dew Point 38 °F    
Average Humidity 74    
Maximum Humidity 95    
Minimum Humidity 38    
Precipitation  
Precipitation 0.62 in - - ()
Sea Level Pressure  
Sea Level Pressure 29.87 in    
Wind  
Wind Speed 16 mph (South)    
Max Wind Speed 32 mph    
Max Gust Speed 46 mph    
Visibility 9 miles    
Events Rain , Thunderstorm    
Averages and records for this station are not official NWS values.
T = Trace of Precipitation, MM = Missing Value Source: NWS Daily Summary

Daily Weather History Graph

Daily Weather History Graph

Search for Another Location

Airport or City:

Trip Planner

Search our weather history database for the weather conditions in past years. The results will help you decide how hot, cold, wet, or windy it might be!

Date:

Astronomy

Feb. 18, 2013 Rise Set
Actual Time 6:38 AM CST 5:34 PM CST
Civil Twilight 6:11 AM CST 6:01 PM CST
Nautical Twilight 5:41 AM CST 6:32 PM CST
Astronomical Twilight 5:10 AM CST 7:02 PM CST
Moon 11:23 AM CST (2/18) 1:15 AM CST (2/18)
Length of Visible Light 11h 49m
Length of Day
10h 56m
First Quarter, 58% of the Moon is Illuminated
Feb 18
First Quarter
Feb 25
Full
Mar 4
Last Quarter
Mar 11
New
Mar 19
First Quarter

Hourly Weather History & Observations

Time (CST) Temp. Windchill Dew Point Humidity Pressure Visibility Wind Dir Wind Speed Gust Speed Precip Events Conditions
12:15 AM 36.0 °F 28.5 °F 27.5 °F 71% 30.06 in 10.0 mi SE 10.4 mph - N/A   Clear
12:55 AM 36.1 °F 28.7 °F 27.5 °F 71% 30.04 in 10.0 mi SE 10.4 mph - N/A   Clear
1:15 AM 36.1 °F 29.3 °F 27.7 °F 71% 30.03 in 10.0 mi SE 9.2 mph - N/A   Clear
1:35 AM 36.3 °F 28.4 °F 27.1 °F 69% 30.03 in 10.0 mi SE 11.5 mph - N/A   Clear
1:55 AM 36.5 °F 28.7 °F 27.1 °F 69% 30.02 in 10.0 mi SE 11.5 mph - N/A   Clear
2:15 AM 36.7 °F 29.4 °F 27.0 °F 68% 30.02 in 10.0 mi SE 10.4 mph - N/A   Clear
2:35 AM 36.7 °F 28.9 °F 27.3 °F 69% 30.01 in 10.0 mi SE 11.5 mph - N/A   Clear
2:55 AM 36.7 °F 28.9 °F 27.3 °F 69% 30.01 in 10.0 mi SE 11.5 mph - N/A   Clear
3:15 AM 36.5 °F 29.2 °F 27.5 °F 70% 30.00 in 10.0 mi SE 10.4 mph - N/A   Clear
3:35 AM 36.5 °F 28.7 °F 27.7 °F 70% 30.00 in 10.0 mi SE 11.5 mph - N/A   Clear
3:55 AM 36.0 °F 29.0 °F 28.2 °F 73% 30.00 in 10.0 mi SE 9.2 mph - N/A   Clear
4:15 AM 35.4 °F 27.8 °F 28.4 °F 76% 30.00 in 10.0 mi SE 10.4 mph - N/A   Clear
4:35 AM 35.8 °F 28.3 °F 28.6 °F 75% 30.00 in 10.0 mi SE 10.4 mph - N/A   Clear
4:55 AM 36.1 °F 29.3 °F 29.1 °F 76% 30.00 in 10.0 mi SE 9.2 mph - N/A   Clear
5:15 AM 36.5 °F 29.2 °F 29.3 °F 75% 30.00 in 10.0 mi SE 10.4 mph - N/A   Clear
5:35 AM 36.5 °F 29.2 °F 29.1 °F 75% 29.99 in 10.0 mi SSE 10.4 mph - N/A   Clear
5:55 AM 36.5 °F 29.7 °F 29.8 °F 77% 29.99 in 10.0 mi SE 9.2 mph - N/A   Clear
6:15 AM 36.5 °F 31.0 °F 30.4 °F 78% 29.98 in 10.0 mi SE 6.9 mph - N/A   Clear
6:35 AM 35.6 °F 28.6 °F 30.9 °F 83% 29.98 in 10.0 mi SE 9.2 mph - N/A   Clear
6:55 AM 36.5 °F 30.3 °F 32.0 °F 84% 29.98 in 10.0 mi SE 8.1 mph - N/A   Clear
7:15 AM 37.8 °F 30.7 °F 32.0 °F 80% 29.98 in 10.0 mi SSE 10.4 mph - N/A   Clear
7:35 AM 40.1 °F 34.7 °F 33.6 °F 78% 29.98 in 10.0 mi SSE 8.1 mph - N/A   Clear
8:15 AM 45.7 °F 38.6 °F 37.4 °F 73% 29.97 in 10.0 mi South 17.3 mph - N/A   Clear
8:35 AM 47.8 °F - 38.3 °F 70% 29.97 in 10.0 mi South 16.1 mph 23.0 mph N/A   Clear
8:55 AM 48.7 °F - 39.4 °F 70% 29.97 in 10.0 mi South 18.4 mph - N/A   Clear
9:15 AM 50.4 °F - 40.6 °F 69% 29.97 in 10.0 mi South 20.7 mph 25.3 mph N/A   Clear
9:35 AM 51.3 °F - 41.2 °F 68% 29.95 in 10.0 mi South 21.9 mph 27.6 mph N/A   Clear
9:55 AM 52.9 °F - 41.7 °F 66% 29.94 in 10.0 mi South 20.7 mph 29.9 mph N/A   Clear
10:15 AM 53.8 °F - 42.4 °F 65% 29.93 in 10.0 mi South 24.2 mph 27.6 mph N/A   Clear
10:35 AM 55.6 °F - 43.0 °F 63% 29.93 in 10.0 mi South 24.2 mph 33.4 mph N/A   Clear
10:55 AM 56.5 °F - 43.3 °F 61% 29.93 in 10.0 mi South 21.9 mph 33.4 mph N/A   Clear
11:15 AM 57.6 °F - 43.3 °F 59% 29.92 in 10.0 mi South 23.0 mph 33.4 mph N/A   Clear
11:35 AM 58.6 °F - 42.8 °F 56% 29.92 in 10.0 mi South 24.2 mph - N/A   Scattered Clouds
11:55 AM 60.1 °F - 41.9 °F 51% 29.90 in 10.0 mi South 28.8 mph 34.5 mph N/A   Scattered Clouds
12:15 PM 62.1 °F - 41.2 °F 46% 29.89 in 10.0 mi South 26.5 mph 33.4 mph N/A   Scattered Clouds
12:35 PM 59.9 °F - 40.3 °F 48% 29.88 in 10.0 mi South 17.3 mph 33.4 mph N/A   Mostly Cloudy
12:55 PM 59.9 °F - 38.7 °F 45% 29.86 in 10.0 mi South 24.2 mph - N/A   Overcast
1:15 PM 60.3 °F - 36.9 °F 42% 29.84 in 10.0 mi South 29.9 mph 36.8 mph N/A   Mostly Cloudy
1:35 PM 59.9 °F - 35.6 °F 40% 29.83 in 10.0 mi South 26.5 mph 33.4 mph N/A   Overcast
1:55 PM 59.2 °F - 33.6 °F 38% 29.84 in 10.0 mi South 29.9 mph 35.7 mph N/A   Overcast
2:15 PM 59.0 °F - 33.6 °F 38% 29.83 in 10.0 mi South 19.6 mph 33.4 mph N/A   Overcast
2:35 PM 58.8 °F - 35.8 °F 42% 29.82 in 10.0 mi SSW 25.3 mph 38.0 mph N/A   Overcast
2:55 PM 53.2 °F - 42.4 °F 67% 29.83 in 7.0 mi South 32.2 mph 46.0 mph N/A Rain Rain
3:15 PM 52.3 °F - 43.3 °F 71% 29.82 in 10.0 mi South 23.0 mph 34.5 mph N/A Rain Light Rain
3:35 PM 51.8 °F - 44.6 °F 76% 29.79 in 7.0 mi South 24.2 mph 29.9 mph 0.01 in Rain Light Rain
3:55 PM 52.3 °F - 44.6 °F 75% 29.78 in 10.0 mi South 19.6 mph 23.0 mph 0.01 in   Overcast
4:15 PM 52.2 °F - 44.8 °F 76% 29.77 in 7.0 mi South 20.7 mph 28.8 mph 0.01 in Rain Light Rain
4:35 PM 53.1 °F - 44.1 °F 71% 29.75 in 10.0 mi South 24.2 mph 31.1 mph 0.01 in Rain Light Rain
4:55 PM 51.8 °F - 45.0 °F 77% 29.74 in 10.0 mi SSE 25.3 mph 32.2 mph 0.01 in Thunderstorm Overcast
5:15 PM 50.9 °F - 45.3 °F 81% 29.73 in 10.0 mi SSE 27.6 mph 33.4 mph N/A   Light Drizzle
5:35 PM 50.4 °F - 45.7 °F 84% 29.72 in 5.0 mi SSE 28.8 mph 34.5 mph 0.02 in Rain Rain
5:55 PM 49.6 °F - 46.4 °F 89% 29.70 in 5.0 mi SSE 29.9 mph 35.7 mph 0.05 in Rain Light Rain
6:15 PM 49.5 °F - 46.6 °F 90% 29.72 in 7.0 mi SSE 25.3 mph 32.2 mph 0.02 in Rain Rain
6:35 PM 49.3 °F - 46.8 °F 91% 29.71 in 4.0 mi SSE 21.9 mph - 0.09 in Rain Rain
6:55 PM 49.3 °F - 46.8 °F 91% 29.72 in 7.0 mi SSE 15.0 mph - 0.13 in Rain Rain
7:15 PM 49.1 °F - 46.9 °F 92% 29.69 in 10.0 mi SSE 20.7 mph 26.5 mph 0.04 in Rain Light Rain
7:35 PM 50.0 °F - 47.1 °F 90% 29.67 in 10.0 mi SSE 17.3 mph 31.1 mph 0.05 in Rain Rain
7:55 PM 50.0 °F - 47.3 °F 90% 29.69 in 10.0 mi South 20.7 mph 24.2 mph 0.07 in Rain Rain
8:15 PM 49.5 °F - 47.5 °F 93% 29.67 in 3.0 mi South 20.7 mph 28.8 mph 0.10 in Rain Heavy Rain
8:35 PM 49.5 °F - 47.7 °F 94% 29.70 in 5.0 mi SW 12.7 mph 21.9 mph 0.18 in Rain Heavy Rain
8:55 PM 49.5 °F - 48.0 °F 95% 29.69 in 4.0 mi WSW 8.1 mph - 0.29 in Rain Heavy Rain
9:15 PM 49.1 °F - 47.7 °F 95% 29.67 in 10.0 mi South 13.8 mph - 0.01 in Rain Light Rain
9:35 PM 50.5 °F - 48.2 °F 92% 29.68 in 7.0 mi South 19.6 mph 25.3 mph 0.02 in Rain Light Rain
9:55 PM 50.2 °F - 47.8 °F 92% 29.69 in 7.0 mi South 19.6 mph 27.6 mph 0.02 in Rain Light Rain
10:15 PM 50.4 °F - 48.0 °F 92% 29.70 in 5.0 mi SW 16.1 mph 25.3 mph 0.01 in   Light Drizzle
10:35 PM 45.3 °F 36.9 °F 43.3 °F 93% 29.76 in 4.0 mi West 23.0 mph 34.5 mph 0.04 in Rain Rain
10:55 PM 43.5 °F 34.3 °F 41.2 °F 91% 29.77 in 5.0 mi West 24.2 mph 33.4 mph 0.04 in   Light Drizzle
11:15 PM 42.3 °F 32.8 °F 39.2 °F 89% 29.79 in 10.0 mi WNW 23.0 mph 27.6 mph N/A   Overcast
11:35 PM 41.9 °F 32.1 °F 38.5 °F 88% 29.82 in 10.0 mi WNW 24.2 mph 35.7 mph N/A   Overcast
11:55 PM 41.9 °F 32.1 °F 38.3 °F 87% 29.83 in 10.0 mi West 24.2 mph - N/A   Overcast